QPF
0.00 0.00 0.00 0.00 0.00 0.00 0.01 0.01 0.01 0.02 0.01 0.00 0.00 0.01 0.01 0.02 0.02 0.02 0.01 0.00 0.00 0.00 0.01 0.01 0.03 0.03 0.03 0.02 0.02 0.03 0.03 0.03 0.03 0.02 0.02 0.02 0.02 0.02 0.02 0.03 0.04 0.04 0.05 0.08 0.10 0.09 0.08 0.07 0.07
0.00 0.00 0.00 0.00 0.00 0.01 0.01 0.01 0.00 0.01 0.02 0.00 0.00 0.00 0.01 0.01 0.01 0.00 0.00 0.00 0.00 0.00 0.00 0.01 0.03 0.04 0.03 0.03 0.03 0.03 0.03 0.03 0.03 0.03 0.02 0.02 0.02 0.02 0.02 0.03 0.03 0.04 0.05 0.08 0.11 0.12 0.11 0.10 0.08
0.00 0.00 0.00 0.00 0.00 0.00 0.01 0.00 0.00 0.01 0.02 0.02 0.00 0.00 0.01 0.02 0.01 0.01 0.00 0.00 0.00 0.00 0.00 0.01 0.04 0.05 0.04 0.03 0.03 0.03 0.04 0.03 0.03 0.03 0.02 0.02 0.02 0.02 0.02 0.03 0.03 0.03 0.04 0.07 0.11 0.14 0.15 0.14 0.11
0.00 0.00 0.00 0.00 0.00 0.00 0.00 0.01 0.00 0.00 0.01 0.03 0.01 0.01 0.01 0.01 0.02 0.01 0.00 0.00 0.00 0.00 0.00 0.01 0.04 0.05 0.04 0.04 0.04 0.03 0.03 0.03 0.03 0.03 0.03 0.02 0.02 0.03 0.03 0.03 0.03 0.03 0.03 0.04 0.08 0.11 0.15 0.17 0.21
0.00 0.00 0.00 0.00 0.00 0.00 0.00 0.00 0.00 0.00 0.01 0.02 0.02 0.01 0.01 0.01 0.01 0.01 0.00 0.00 0.00 0.01 0.01 0.01 0.03 0.03 0.03 0.03 0.03 0.04 0.04 0.04 0.03 0.03 0.03 0.03 0.03 0.04 0.04 0.04 0.04 0.04 0.03 0.04 0.05 0.05 0.07 0.10 0.19
0.00 0.00 0.00 0.00 0.00 0.00 0.00 0.00 0.00 0.00 0.00 0.01 0.02 0.01 0.02 0.01 0.01 0.01 0.01 0.01 0.01 0.03 0.02 0.01 0.01 0.02 0.03 0.03 0.03 0.03 0.04 0.04 0.04 0.04 0.04 0.04 0.04 0.03 0.04 0.04 0.05 0.04 0.04 0.04 0.04 0.04 0.04 0.08 0.12
0.00 0.00 0.00 0.00 0.00 0.01 0.00 0.00 0.00 0.00 0.00 0.00 0.01 0.01 0.02 0.01 0.01 0.02 0.02 0.02 0.04 0.04 0.04 0.02 0.02 0.01 0.03 0.06 0.05 0.04 0.04 0.04 0.05 0.05 0.06 0.06 0.05 0.04 0.03 0.03 0.03 0.03 0.04 0.04 0.04 0.05 0.05 0.06 0.07
0.00 0.00 0.00 0.01 0.01 0.01 0.00 0.00 0.00 0.00 0.00 0.01 0.00 0.01 0.02 0.02 0.02 0.02 0.03 0.04 0.05 0.05 0.06 0.04 0.03 0.02 0.04 0.09 0.08 0.05 0.05 0.04 0.05 0.06 0.08 0.08 0.08 0.06 0.05 0.04 0.03 0.03 0.03 0.03 0.03 0.04 0.05 0.06 0.06
0.00 0.00 0.00 0.01 0.01 0.00 0.00 0.00 0.00 0.00 0.00 0.00 0.00 0.00 0.01 0.02 0.02 0.02 0.02 0.03 0.05 0.05 0.06 0.05 0.03 0.04 0.06 0.11 0.10 0.07 0.06 0.05 0.04 0.05 0.06 0.07 0.09 0.10 0.09 0.06 0.05 0.05 0.04 0.03 0.03 0.06 0.05 0.05 0.06
0.00 0.00 0.00 0.00 0.00 0.00 0.00 0.00 0.00 0.00 0.00 0.00 0.00 0.00 0.00 0.01 0.01 0.02 0.02 0.02 0.03 0.06 0.07 0.06 0.04 0.05 0.06 0.09 0.09 0.08 0.06 0.05 0.04 0.04 0.05 0.07 0.09 0.12 0.11 0.08 0.07 0.06 0.07 0.06 0.05 0.05 0.05 0.04 0.04
0.00 0.01 0.00 0.00 0.00 0.00 0.00 0.00 0.00 0.00 0.00 0.00 0.01 0.00 0.00 0.01 0.01 0.02 0.02 0.02 0.05 0.09 0.10 0.09 0.09 0.06 0.05 0.06 0.05 0.06 0.06 0.06 0.05 0.04 0.06 0.07 0.11 0.16 0.19 0.16 0.11 0.08 0.08 0.08 0.06 0.06 0.05 0.04 0.04
0.01 0.01 0.00 0.00 0.00 0.00 0.00 0.00 0.00 0.00 0.01 0.01 0.01 0.00 0.01 0.02 0.02 0.03 0.03 0.04 0.05 0.09 0.12 0.12 0.11 0.05 0.05 0.06 0.05 0.05 0.07 0.07 0.07 0.07 0.06 0.07 0.12 0.19 0.21 0.20 0.12 0.09 0.08 0.09 0.07 0.07 0.06 0.04 0.03
0.01 0.01 0.00 0.00 0.00 0.00 0.01 0.01 0.00 0.00 0.01 0.01 0.02 0.02 0.03 0.02 0.03 0.04 0.04 0.04 0.04 0.06 0.09 0.11 0.06 0.04 0.05 0.05 0.06 0.05 0.06 0.06 0.06 0.07 0.06 0.09 0.13 0.16 0.17 0.16 0.14 0.10 0.09 0.09 0.07 0.08 0.08 0.07 0.04
0.01 0.00 0.00 0.00 0.00 0.01 0.01 0.01 0.01 0.01 0.01 0.02 0.03 0.03 0.04 0.02 0.02 0.03 0.04 0.04 0.04 0.05 0.06 0.08 0.06 0.04 0.05 0.05 0.05 0.05 0.05 0.05 0.06 0.05 0.05 0.09 0.11 0.13 0.13 0.10 0.08 0.07 0.08 0.09 0.06 0.07 0.06 0.06 0.06
0.01 0.00 0.00 0.00 0.00 0.01 0.01 0.02 0.01 0.01 0.02 0.02 0.02 0.03 0.02 0.03 0.03 0.03 0.04 0.05 0.04 0.06 0.05 0.06 0.05 0.04 0.05 0.07 0.06 0.04 0.04 0.05 0.06 0.07 0.06 0.08 0.09 0.10 0.11 0.09 0.06 0.06 0.07 0.10 0.08 0.06 0.05 0.07 0.07
0.00 0.00 0.00 0.00 0.00 0.00 0.01 0.02 0.01 0.00 0.01 0.02 0.02 0.02 0.02 0.02 0.04 0.06 0.06 0.07 0.05 0.04 0.05 0.06 0.05 0.04 0.04 0.05 0.06 0.06 0.06 0.07 0.07 0.07 0.06 0.07 0.08 0.09 0.10 0.08 0.06 0.05 0.07 0.08 0.07 0.06 0.06 0.06 0.06
0.00 0.00 0.00 0.00 0.00 0.00 0.01 0.01 0.01 0.01 0.02 0.02 0.02 0.03 0.04 0.04 0.06 0.08 0.07 0.06 0.06 0.04 0.05 0.07 0.06 0.06 0.05 0.04 0.03 0.05 0.07 0.08 0.07 0.07 0.07 0.07 0.09 0.10 0.07 0.06 0.06 0.06 0.07 0.07 0.06 0.06 0.05 0.05 0.05
0.00 0.00 0.00 0.01 0.01 0.01 0.01 0.02 0.02 0.02 0.02 0.03 0.05 0.05 0.05 0.04 0.06 0.04 0.03 0.03 0.04 0.04 0.04 0.05 0.05 0.06 0.06 0.05 0.04 0.04 0.05 0.05 0.05 0.04 0.05 0.05 0.06 0.10 0.09 0.06 0.07 0.06 0.06 0.07 0.06 0.06 0.05 0.05 0.05
0.00 0.00 0.00 0.01 0.02 0.01 0.02 0.03 0.03 0.03 0.03 0.04 0.06 0.05 0.05 0.03 0.03 0.02 0.02 0.02 0.03 0.03 0.04 0.04 0.04 0.04 0.05 0.05 0.05 0.05 0.05 0.05 0.04 0.04 0.04 0.04 0.04 0.08 0.10 0.08 0.08 0.08 0.07 0.05 0.06 0.06 0.05 0.05 0.05
0.00 0.00 0.01 0.02 0.01 0.01 0.02 0.02 0.02 0.03 0.03 0.02 0.02 0.03 0.03 0.02 0.02 0.02 0.02 0.02 0.02 0.02 0.03 0.04 0.06 0.05 0.05 0.04 0.04 0.04 0.04 0.04 0.04 0.04 0.03 0.04 0.04 0.06 0.07 0.07 0.06 0.07 0.07 0.06 0.06 0.06 0.05 0.03 0.04
0.01 0.01 0.01 0.01 0.01 0.01 0.02 0.02 0.02 0.02 0.02 0.02 0.01 0.01 0.02 0.02 0.02 0.02 0.01 0.01 0.02 0.03 0.05 0.11 0.14 0.10 0.08 0.06 0.05 0.05 0.04 0.03 0.03 0.03 0.04 0.04 0.03 0.03 0.05 0.05 0.06 0.07 0.07 0.07 0.07 0.05 0.05 0.05 0.04
0.01 0.00 0.00 0.00 0.01 0.01 0.01 0.01 0.01 0.01 0.02 0.02 0.02 0.02 0.02 0.02 0.01 0.01 0.01 0.01 0.01 0.01 0.01 0.04 0.12 0.12 0.08 0.07 0.05 0.05 0.05 0.04 0.03 0.03 0.04 0.04 0.04 0.03 0.03 0.04 0.05 0.06 0.05 0.06 0.06 0.05 0.05 0.05 0.05
0.00 0.00 0.00 0.00 0.00 0.00 0.00 0.01 0.01 0.02 0.01 0.02 0.03 0.02 0.02 0.01 0.01 0.01 0.01 0.00 0.00 0.00 0.01 0.01 0.03 0.07 0.05 0.03 0.03 0.04 0.05 0.05 0.04 0.03 0.03 0.03 0.04 0.04 0.03 0.03 0.03 0.04 0.04 0.04 0.04 0.04 0.04 0.04 0.04
0.00 0.00 0.00 0.00 0.00 0.01 0.00 0.01 0.01 0.02 0.02 0.03 0.04 0.03 0.02 0.02 0.01 0.00 0.00 0.00 0.00 0.01 0.01 0.01 0.01 0.01 0.01 0.01 0.02 0.03 0.03 0.04 0.04 0.04 0.04 0.04 0.03 0.03 0.03 0.03 0.03 0.05 0.06 0.04 0.05 0.05 0.04 0.04 0.04
0.00 0.01 0.01 0.01 0.01 0.01 0.00 0.01 0.01 0.02 0.03 0.04 0.03 0.02 0.02 0.02 0.01 0.01 0.01 0.01 0.01 0.01 0.02 0.01 0.01 0.01 0.01 0.01 0.03 0.03 0.03 0.03 0.03 0.04 0.04 0.03 0.02 0.03 0.05 0.04 0.04 0.04 0.07 0.06 0.05 0.06 0.06 0.06 0.06
0.00 0.00 0.01 0.01 0.01 0.01 0.01 0.02 0.01 0.02 0.03 0.04 0.03 0.02 0.03 0.02 0.01 0.01 0.01 0.01 0.01 0.01 0.01 0.01 0.01 0.01 0.01 0.01 0.02 0.02 0.02 0.02 0.02 0.02 0.03 0.03 0.03 0.03 0.05 0.06 0.05 0.05 0.05 0.06 0.07 0.07 0.07 0.07 0.07
0.00 0.00 0.00 0.00 0.01 0.01 0.01 0.02 0.01 0.01 0.02 0.01 0.01 0.01 0.02 0.01 0.00 0.01 0.01 0.01 0.01 0.01 0.01 0.01 0.01 0.01 0.01 0.01 0.01 0.01 0.01 0.01 0.01 0.02 0.03 0.03 0.03 0.03 0.04 0.06 0.05 0.04 0.03 0.04 0.05 0.06 0.05 0.05 0.05
0.00 0.00 0.00 0.00 0.01 0.01 0.01 0.01 0.01 0.01 0.01 0.00 0.00 0.00 0.01 0.00 0.00 0.01 0.01 0.01 0.01 0.01 0.01 0.01 0.02 0.03 0.03 0.02 0.02 0.01 0.01 0.02 0.02 0.03 0.04 0.05 0.04 0.04 0.04 0.05 0.04 0.03 0.02 0.03 0.04 0.04 0.04 0.05 0.04
0.00 0.00 0.00 0.00 0.00 0.01 0.01 0.01 0.01 0.01 0.01 0.00 0.00 0.00 0.00 0.00 0.01 0.01 0.01 0.01 0.01 0.01 0.01 0.02 0.02 0.03 0.03 0.03 0.05 0.07 0.06 0.06 0.07 0.08 0.08 0.09 0.08 0.07 0.06 0.05 0.04 0.02 0.02 0.02 0.03 0.03 0.04 0.04 0.04
0.00 0.00 0.00 0.01 0.01 0.01 0.01 0.01 0.00 0.00 0.00 0.00 0.00 0.00 0.00 0.01 0.01 0.02 0.02 0.02 0.02 0.02 0.01 0.01 0.01 0.02 0.04 0.06 0.10 0.13 0.14 0.13 0.12 0.13 0.13 0.10 0.09 0.07 0.05 0.04 0.02 0.02 0.02 0.02 0.02 0.03 0.04 0.04 0.04
MSLP
1011.72 1012.10 1012.43 1012.63 1012.62 1012.40 1012.00 1011.48 1010.95 1010.49 1010.15 1009.97 1009.90 1009.91 1009.91 1009.88 1009.77 1009.61 1009.46 1009.38 1009.44 1009.68 1010.10 1010.66 1011.29 1011.90 1012.41 1012.79 1013.03 1013.16 1013.25 1013.38 1013.60 1013.94 1014.39 1014.90 1015.40 1015.83 1016.15 1016.32 1016.38 1016.37 1016.35 1016.38 1016.48 1016.66 1016.88 1017.11 1017.28
1011.85 1012.27 1012.59 1012.73 1012.64 1012.30 1011.78 1011.15 1010.53 1009.99 1009.60 1009.38 1009.30 1009.29 1009.30 1009.28 1009.20 1009.07 1008.97 1008.96 1009.10 1009.42 1009.92 1010.57 1011.27 1011.94 1012.51 1012.93 1013.20 1013.36 1013.48 1013.61 1013.84 1014.16 1014.59 1015.05 1015.51 1015.89 1016.16 1016.31 1016.36 1016.36 1016.37 1016.44 1016.58 1016.79 1017.04 1017.26 1017.42
1012.01 1012.45 1012.74 1012.81 1012.61 1012.16 1011.53 1010.82 1010.13 1009.56 1009.17 1008.95 1008.89 1008.91 1008.94 1008.94 1008.88 1008.78 1008.71 1008.73 1008.90 1009.26 1009.81 1010.49 1011.24 1011.96 1012.58 1013.05 1013.37 1013.57 1013.72 1013.87 1014.09 1014.40 1014.78 1015.20 1015.60 1015.93 1016.17 1016.30 1016.36 1016.40 1016.46 1016.57 1016.76 1017.00 1017.25 1017.46 1017.57
1012.15 1012.57 1012.80 1012.78 1012.47 1011.92 1011.21 1010.44 1009.73 1009.17 1008.81 1008.65 1008.64 1008.72 1008.80 1008.84 1008.81 1008.74 1008.68 1008.71 1008.88 1009.24 1009.79 1010.47 1011.23 1011.97 1012.62 1013.12 1013.49 1013.74 1013.92 1014.10 1014.32 1014.61 1014.95 1015.32 1015.67 1015.96 1016.18 1016.32 1016.42 1016.50 1016.62 1016.80 1017.03 1017.28 1017.52 1017.69 1017.75
1012.20 1012.58 1012.73 1012.60 1012.19 1011.55 1010.78 1009.99 1009.29 1008.78 1008.49 1008.42 1008.50 1008.66 1008.82 1008.92 1008.94 1008.90 1008.85 1008.88 1009.03 1009.36 1009.87 1010.52 1011.25 1011.97 1012.62 1013.14 1013.54 1013.83 1014.05 1014.26 1014.48 1014.76 1015.07 1015.40 1015.71 1015.98 1016.20 1016.37 1016.51 1016.66 1016.85 1017.08 1017.34 1017.59 1017.80 1017.92 1017.92
1012.14 1012.43 1012.48 1012.24 1011.74 1011.04 1010.24 1009.46 1008.80 1008.37 1008.17 1008.20 1008.38 1008.64 1008.89 1009.07 1009.16 1009.16 1009.14 1009.17 1009.30 1009.59 1010.04 1010.63 1011.29 1011.96 1012.58 1013.10 1013.52 1013.83 1014.09 1014.32 1014.56 1014.83 1015.12 1015.42 1015.71 1015.98 1016.20 1016.40 1016.60 1016.81 1017.05 1017.32 1017.60 1017.85 1018.03 1018.09 1018.03
1011.96 1012.15 1012.09 1011.76 1011.19 1010.45 1009.65 1008.90 1008.31 1007.96 1007.86 1007.98 1008.25 1008.60 1008.94 1009.20 1009.36 1009.43 1009.46 1009.50 1009.63 1009.88 1010.26 1010.77 1011.35 1011.95 1012.51 1013.00 1013.41 1013.74 1014.02 1014.27 1014.53 1014.80 1015.09 1015.38 1015.66 1015.92 1016.15 1016.38 1016.61 1016.87 1017.15 1017.45 1017.73 1017.96 1018.11 1018.13 1018.03
1011.68 1011.77 1011.62 1011.22 1010.61 1009.88 1009.11 1008.43 1007.91 1007.63 1007.59 1007.78 1008.11 1008.52 1008.93 1009.26 1009.49 1009.64 1009.72 1009.81 1009.94 1010.16 1010.49 1010.91 1011.40 1011.91 1012.40 1012.85 1013.23 1013.57 1013.86 1014.14 1014.42 1014.70 1014.98 1015.26 1015.53 1015.78 1016.02 1016.25 1016.50 1016.78 1017.08 1017.38 1017.65 1017.87 1017.99 1017.99 1017.89
1011.37 1011.37 1011.15 1010.73 1010.14 1009.46 1008.76 1008.15 1007.70 1007.47 1007.47 1007.66 1008.01 1008.42 1008.85 1009.22 1009.52 1009.73 1009.88 1010.02 1010.18 1010.40 1010.68 1011.04 1011.44 1011.86 1012.27 1012.65 1013.01 1013.33 1013.63 1013.93 1014.22 1014.51 1014.80 1015.07 1015.33 1015.56 1015.79 1016.01 1016.26 1016.53 1016.82 1017.10 1017.37 1017.56 1017.68 1017.68 1017.60
1011.06 1011.01 1010.78 1010.39 1009.87 1009.28 1008.69 1008.16 1007.78 1007.57 1007.55 1007.71 1008.00 1008.36 1008.75 1009.12 1009.44 1009.71 1009.93 1010.12 1010.33 1010.55 1010.81 1011.11 1011.43 1011.77 1012.10 1012.43 1012.74 1013.05 1013.35 1013.66 1013.97 1014.27 1014.56 1014.83 1015.07 1015.28 1015.48 1015.69 1015.90 1016.15 1016.41 1016.68 1016.92 1017.11 1017.23 1017.26 1017.23
1010.81 1010.75 1010.56 1010.26 1009.85 1009.39 1008.93 1008.51 1008.17 1007.97 1007.90 1007.96 1008.13 1008.38 1008.69 1009.00 1009.31 1009.60 1009.86 1010.11 1010.36 1010.60 1010.86 1011.12 1011.38 1011.65 1011.91 1012.18 1012.46 1012.74 1013.04 1013.35 1013.67 1013.98 1014.27 1014.54 1014.76 1014.96 1015.14 1015.31 1015.50 1015.72 1015.95 1016.19 1016.42 1016.61 1016.75 1016.82 1016.85
1010.65 1010.62 1010.51 1010.32 1010.07 1009.77 1009.46 1009.14 1008.85 1008.62 1008.47 1008.40 1008.42 1008.51 1008.67 1008.89 1009.15 1009.42 1009.71 1009.99 1010.27 1010.54 1010.80 1011.04 1011.26 1011.48 1011.69 1011.91 1012.15 1012.42 1012.70 1013.02 1013.34 1013.65 1013.95 1014.21 1014.43 1014.62 1014.79 1014.95 1015.12 1015.32 1015.54 1015.76 1015.99 1016.18 1016.34 1016.46 1016.55
1010.59 1010.61 1010.59 1010.54 1010.45 1010.32 1010.15 1009.94 1009.69 1009.43 1009.18 1008.96 1008.80 1008.71 1008.71 1008.80 1008.97 1009.20 1009.48 1009.78 1010.08 1010.37 1010.64 1010.87 1011.07 1011.26 1011.44 1011.62 1011.83 1012.07 1012.35 1012.65 1012.96 1013.27 1013.57 1013.84 1014.07 1014.27 1014.45 1014.63 1014.81 1015.01 1015.23 1015.47 1015.70 1015.91 1016.10 1016.25 1016.39
1010.63 1010.69 1010.76 1010.82 1010.88 1010.89 1010.85 1010.72 1010.50 1010.21 1009.87 1009.51 1009.18 1008.92 1008.76 1008.71 1008.78 1008.94 1009.19 1009.48 1009.79 1010.09 1010.36 1010.60 1010.80 1010.97 1011.14 1011.31 1011.49 1011.71 1011.96 1012.24 1012.54 1012.84 1013.13 1013.40 1013.66 1013.89 1014.12 1014.34 1014.57 1014.82 1015.07 1015.33 1015.59 1015.83 1016.04 1016.22 1016.39
1010.74 1010.82 1010.93 1011.08 1011.23 1011.34 1011.38 1011.31 1011.12 1010.79 1010.38 1009.91 1009.45 1009.04 1008.74 1008.57 1008.54 1008.64 1008.84 1009.11 1009.41 1009.71 1009.99 1010.24 1010.45 1010.63 1010.80 1010.96 1011.14 1011.33 1011.55 1011.80 1012.06 1012.33 1012.61 1012.89 1013.18 1013.46 1013.75 1014.05 1014.36 1014.68 1015.00 1015.32 1015.62 1015.88 1016.12 1016.32 1016.50
1010.92 1010.96 1011.07 1011.24 1011.42 1011.58 1011.65 1011.60 1011.41 1011.05 1010.58 1010.04 1009.49 1008.99 1008.59 1008.34 1008.23 1008.27 1008.43 1008.67 1008.95 1009.25 1009.54 1009.80 1010.04 1010.24 1010.42 1010.60 1010.77 1010.94 1011.13 1011.32 1011.53 1011.76 1012.01 1012.29 1012.59 1012.93 1013.30 1013.69 1014.11 1014.53 1014.94 1015.33 1015.68 1015.99 1016.25 1016.46 1016.64
1011.14 1011.12 1011.17 1011.29 1011.44 1011.57 1011.63 1011.56 1011.33 1010.95 1010.44 1009.86 1009.27 1008.73 1008.29 1007.99 1007.85 1007.86 1007.98 1008.19 1008.46 1008.75 1009.04 1009.32 1009.58 1009.82 1010.03 1010.23 1010.40 1010.55 1010.69 1010.83 1010.97 1011.13 1011.34 1011.59 1011.90 1012.28 1012.72 1013.22 1013.74 1014.27 1014.78 1015.26 1015.68 1016.03 1016.32 1016.55 1016.73
1011.39 1011.28 1011.24 1011.27 1011.33 1011.38 1011.36 1011.23 1010.94 1010.52 1009.98 1009.39 1008.79 1008.26 1007.83 1007.54 1007.40 1007.40 1007.51 1007.70 1007.95 1008.24 1008.53 1008.83 1009.12 1009.40 1009.65 1009.86 1010.04 1010.18 1010.28 1010.34 1010.41 1010.49 1010.62 1010.83 1011.13 1011.53 1012.03 1012.61 1013.23 1013.87 1014.48 1015.04 1015.53 1015.94 1016.26 1016.50 1016.70
1011.65 1011.45 1011.31 1011.23 1011.18 1011.12 1010.98 1010.74 1010.37 1009.88 1009.31 1008.71 1008.14 1007.65 1007.27 1007.03 1006.92 1006.94 1007.06 1007.25 1007.49 1007.76 1008.06 1008.37 1008.69 1009.00 1009.28 1009.53 1009.72 1009.84 1009.90 1009.90 1009.88 1009.88 1009.93 1010.07 1010.33 1010.73 1011.26 1011.89 1012.59 1013.32 1014.02 1014.66 1015.22 1015.67 1016.03 1016.31 1016.51
1011.90 1011.64 1011.43 1011.25 1011.09 1010.88 1010.61 1010.23 1009.75 1009.18 1008.57 1007.96 1007.42 1006.97 1006.66 1006.49 1006.45 1006.51 1006.65 1006.85 1007.09 1007.36 1007.65 1007.97 1008.31 1008.64 1008.96 1009.23 1009.44 1009.55 1009.58 1009.53 1009.44 1009.35 1009.32 1009.39 1009.60 1009.97 1010.50 1011.16 1011.91 1012.69 1013.46 1014.17 1014.78 1015.28 1015.68 1015.98 1016.21
1012.11 1011.84 1011.60 1011.37 1011.11 1010.79 1010.37 1009.86 1009.24 1008.57 1007.88 1007.25 1006.72 1006.32 1006.08 1005.99 1006.02 1006.14 1006.33 1006.55 1006.79 1007.06 1007.35 1007.66 1008.00 1008.35 1008.69 1008.98 1009.20 1009.32 1009.34 1009.25 1009.11 1008.96 1008.85 1008.86 1009.01 1009.34 1009.85 1010.51 1011.28 1012.09 1012.90 1013.64 1014.30 1014.84 1015.26 1015.60 1015.86
1012.22 1012.02 1011.82 1011.58 1011.28 1010.87 1010.33 1009.67 1008.92 1008.12 1007.35 1006.66 1006.12 1005.75 1005.57 1005.54 1005.65 1005.84 1006.08 1006.33 1006.59 1006.86 1007.14 1007.44 1007.77 1008.12 1008.47 1008.77 1009.01 1009.14 1009.16 1009.07 1008.90 1008.72 1008.58 1008.53 1008.64 1008.93 1009.41 1010.05 1010.80 1011.62 1012.44 1013.20 1013.88 1014.44 1014.88 1015.23 1015.51
1012.22 1012.15 1012.04 1011.85 1011.55 1011.09 1010.46 1009.68 1008.79 1007.87 1006.98 1006.23 1005.65 1005.28 1005.13 1005.16 1005.33 1005.59 1005.89 1006.18 1006.46 1006.73 1007.00 1007.29 1007.60 1007.93 1008.27 1008.58 1008.83 1008.98 1009.03 1008.96 1008.81 1008.63 1008.48 1008.42 1008.51 1008.77 1009.21 1009.82 1010.55 1011.35 1012.16 1012.91 1013.59 1014.15 1014.60 1014.95 1015.22
1012.11 1012.19 1012.21 1012.12 1011.86 1011.38 1010.70 1009.82 1008.81 1007.76 1006.77 1005.93 1005.29 1004.90 1004.75 1004.82 1005.04 1005.36 1005.71 1006.05 1006.36 1006.64 1006.90 1007.17 1007.46 1007.77 1008.10 1008.40 1008.66 1008.84 1008.92 1008.89 1008.79 1008.66 1008.54 1008.50 1008.59 1008.83 1009.25 1009.83 1010.53 1011.29 1012.06 1012.79 1013.44 1013.99 1014.42 1014.76 1015.02
1011.89 1012.13 1012.29 1012.30 1012.10 1011.65 1010.94 1010.00 1008.90 1007.75 1006.65 1005.72 1005.01 1004.58 1004.42 1004.49 1004.75 1005.11 1005.51 1005.90 1006.24 1006.54 1006.81 1007.07 1007.33 1007.62 1007.92 1008.21 1008.48 1008.68 1008.80 1008.84 1008.81 1008.74 1008.69 1008.69 1008.81 1009.06 1009.47 1010.02 1010.67 1011.39 1012.11 1012.80 1013.41 1013.92 1014.33 1014.63 1014.86
1011.60 1011.96 1012.24 1012.35 1012.22 1011.80 1011.09 1010.12 1008.97 1007.74 1006.57 1005.55 1004.77 1004.29 1004.09 1004.16 1004.43 1004.82 1005.26 1005.69 1006.07 1006.40 1006.69 1006.94 1007.19 1007.45 1007.73 1008.01 1008.28 1008.50 1008.67 1008.77 1008.82 1008.84 1008.86 1008.93 1009.09 1009.36 1009.76 1010.28 1010.89 1011.56 1012.23 1012.86 1013.42 1013.89 1014.25 1014.52 1014.72
1011.28 1011.71 1012.06 1012.24 1012.16 1011.77 1011.08 1010.11 1008.94 1007.69 1006.47 1005.40 1004.57 1004.03 1003.79 1003.83 1004.09 1004.49 1004.95 1005.42 1005.85 1006.21 1006.52 1006.79 1007.03 1007.28 1007.54 1007.81 1008.07 1008.31 1008.52 1008.68 1008.80 1008.90 1009.00 1009.15 1009.35 1009.65 1010.04 1010.54 1011.10 1011.71 1012.32 1012.89 1013.40 1013.82 1014.14 1014.38 1014.54
1010.96 1011.39 1011.75 1011.94 1011.89 1011.53 1010.87 1009.94 1008.80 1007.55 1006.33 1005.24 1004.38 1003.80 1003.52 1003.52 1003.75 1004.14 1004.61 1005.11 1005.57 1005.97 1006.31 1006.61 1006.86 1007.11 1007.36 1007.62 1007.87 1008.12 1008.36 1008.56 1008.75 1008.92 1009.09 1009.29 1009.54 1009.86 1010.25 1010.72 1011.23 1011.78 1012.32 1012.83 1013.28 1013.66 1013.95 1014.16 1014.30
1010.64 1011.02 1011.33 1011.49 1011.42 1011.08 1010.46 1009.58 1008.51 1007.33 1006.16 1005.10 1004.24 1003.64 1003.32 1003.28 1003.47 1003.83 1004.29 1004.79 1005.27 1005.71 1006.10 1006.42 1006.71 1006.97 1007.22 1007.47 1007.72 1007.97 1008.22 1008.45 1008.68 1008.90 1009.12 1009.37 1009.66 1009.99 1010.37 1010.80 1011.27 1011.75 1012.23 1012.68 1013.08 1013.41 1013.68 1013.87 1014.02
1010.33 1010.59 1010.80 1010.88 1010.77 1010.44 1009.87 1009.07 1008.10 1007.03 1005.96 1004.97 1004.15 1003.56 1003.22 1003.13 1003.27 1003.59 1004.02 1004.51 1005.01 1005.47 1005.90 1006.26 1006.58 1006.87 1007.13 1007.38 1007.63 1007.88 1008.13 1008.37 1008.62 1008.87 1009.13 1009.41 1009.71 1010.05 1010.42 1010.82 1011.24 1011.66 1012.08 1012.47 1012.82 1013.12 1013.37 1013.56 1013.71
Thickness
5800 5807 5811 5807 5801 5801 5794 5797 5803 5801 5801 5808 5808 5805 5799 5795 5788 5781 5799 5807 5804 5800 5793 5785 5780 5777 5776 5774 5772 5771 5769 5767 5766 5764 5762 5761 5760 5758 5758 5757 5755 5755 5754 5754 5753 5752 5751 5751 5751
5806 5808 5806 5804 5799 5790 5788 5799 5798 5799 5804 5808 5806 5803 5798 5795 5798 5797 5800 5801 5801 5797 5791 5785 5777 5774 5772 5771 5769 5767 5766 5764 5762 5760 5759 5757 5756 5755 5754 5754 5753 5752 5751 5750 5750 5749 5748 5748 5748
5806 5807 5803 5803 5797 5792 5789 5799 5799 5803 5807 5803 5800 5801 5796 5792 5797 5798 5800 5800 5798 5793 5789 5782 5775 5772 5770 5767 5766 5764 5762 5760 5758 5757 5756 5754 5753 5752 5751 5751 5750 5750 5748 5747 5746 5745 5745 5745 5745
5803 5802 5802 5798 5791 5797 5798 5802 5803 5800 5802 5803 5800 5794 5796 5798 5798 5800 5800 5798 5794 5790 5787 5780 5772 5769 5766 5764 5762 5760 5758 5756 5755 5753 5752 5751 5750 5749 5748 5748 5747 5747 5745 5744 5743 5742 5742 5742 5741
5802 5799 5793 5792 5791 5798 5804 5806 5805 5798 5796 5799 5797 5790 5789 5796 5800 5800 5797 5794 5791 5789 5785 5777 5769 5766 5763 5760 5758 5756 5755 5753 5751 5750 5749 5747 5746 5745 5745 5744 5744 5743 5742 5741 5740 5739 5739 5739 5739
5795 5797 5788 5785 5788 5796 5803 5807 5804 5799 5798 5798 5794 5789 5788 5795 5794 5794 5794 5792 5790 5786 5782 5774 5766 5763 5759 5757 5755 5753 5751 5749 5748 5746 5745 5744 5743 5743 5742 5742 5741 5740 5740 5739 5738 5737 5737 5736 5737
5790 5790 5787 5788 5786 5790 5798 5806 5802 5798 5794 5796 5797 5788 5788 5790 5792 5792 5791 5790 5787 5783 5779 5774 5768 5762 5757 5754 5751 5749 5747 5746 5744 5743 5741 5740 5739 5739 5738 5738 5738 5737 5736 5736 5736 5735 5734 5734 5734
5796 5790 5786 5788 5785 5788 5800 5802 5802 5798 5794 5801 5799 5786 5783 5787 5791 5790 5786 5784 5782 5778 5775 5771 5767 5762 5758 5754 5749 5746 5744 5742 5741 5739 5738 5737 5736 5736 5735 5735 5734 5734 5733 5733 5733 5732 5732 5732 5731
5794 5783 5781 5786 5786 5791 5800 5797 5800 5804 5798 5796 5797 5793 5791 5790 5788 5783 5780 5777 5775 5772 5770 5768 5764 5760 5757 5754 5749 5745 5742 5740 5739 5737 5735 5734 5736 5736 5734 5734 5731 5730 5730 5730 5730 5729 5729 5729 5729
5786 5779 5784 5793 5796 5796 5798 5796 5796 5795 5791 5789 5790 5790 5789 5786 5782 5778 5775 5771 5769 5767 5766 5764 5761 5758 5755 5753 5748 5745 5743 5740 5738 5737 5735 5735 5734 5734 5733 5730 5728 5727 5727 5727 5727 5727 5726 5727 5730
5784 5781 5787 5792 5798 5798 5795 5795 5798 5791 5785 5788 5786 5786 5784 5782 5780 5777 5774 5771 5768 5765 5762 5761 5758 5754 5753 5751 5747 5744 5741 5739 5737 5735 5733 5732 5731 5731 5730 5729 5726 5725 5725 5726 5725 5725 5728 5729 5729
5780 5784 5787 5790 5794 5794 5792 5792 5790 5788 5787 5794 5793 5791 5784 5780 5778 5775 5772 5769 5766 5762 5759 5758 5756 5752 5749 5747 5745 5741 5739 5737 5735 5732 5730 5730 5729 5728 5728 5725 5725 5724 5724 5723 5724 5724 5725 5725 5725
5777 5780 5786 5790 5791 5792 5790 5787 5785 5785 5790 5793 5791 5788 5782 5780 5777 5775 5772 5769 5765 5760 5757 5756 5753 5749 5745 5742 5740 5739 5736 5734 5732 5729 5728 5726 5726 5725 5725 5722 5721 5721 5721 5720 5720 5720 5719 5720 5721
5780 5781 5783 5787 5789 5788 5783 5783 5782 5783 5789 5787 5785 5782 5781 5778 5775 5772 5768 5764 5761 5758 5756 5753 5750 5747 5743 5740 5737 5735 5734 5731 5730 5727 5725 5722 5722 5720 5719 5718 5717 5717 5716 5716 5716 5716 5715 5715 5716
5780 5774 5779 5784 5785 5785 5782 5774 5778 5786 5786 5781 5779 5779 5777 5775 5773 5769 5766 5762 5760 5756 5754 5751 5748 5744 5740 5737 5735 5733 5731 5728 5726 5723 5720 5717 5717 5715 5714 5713 5712 5712 5711 5710 5710 5710 5711 5711 5711
5776 5771 5768 5779 5782 5781 5773 5763 5780 5787 5781 5775 5776 5776 5773 5772 5771 5769 5766 5762 5759 5755 5751 5748 5747 5742 5737 5733 5730 5730 5728 5725 5722 5719 5716 5713 5711 5710 5708 5708 5708 5707 5706 5706 5706 5706 5706 5706 5706
5768 5764 5767 5773 5781 5778 5771 5766 5779 5784 5780 5775 5774 5773 5771 5769 5768 5767 5764 5761 5757 5753 5749 5746 5743 5739 5735 5731 5728 5726 5723 5720 5718 5715 5713 5710 5707 5705 5704 5704 5703 5702 5702 5702 5702 5703 5702 5701 5700
5763 5767 5767 5768 5776 5773 5768 5770 5778 5781 5779 5775 5773 5771 5768 5766 5765 5765 5762 5759 5755 5750 5747 5743 5739 5735 5732 5729 5725 5723 5719 5717 5715 5712 5708 5706 5703 5701 5700 5700 5698 5698 5698 5697 5696 5695 5695 5695 5695
5769 5765 5763 5767 5776 5768 5765 5768 5774 5778 5775 5772 5770 5768 5766 5765 5766 5763 5759 5756 5752 5747 5742 5739 5735 5732 5728 5726 5723 5719 5716 5714 5712 5709 5705 5702 5700 5698 5696 5696 5694 5693 5693 5691 5691 5690 5689 5689 5690
5765 5761 5761 5766 5771 5765 5763 5766 5775 5775 5773 5772 5769 5766 5765 5763 5761 5757 5754 5752 5748 5744 5740 5736 5732 5730 5726 5723 5720 5717 5713 5712 5710 5706 5702 5699 5696 5694 5694 5691 5690 5689 5687 5686 5685 5683 5683 5685 5685
5761 5760 5761 5759 5764 5768 5761 5761 5768 5772 5772 5770 5769 5767 5765 5761 5757 5753 5750 5748 5746 5741 5738 5735 5730 5727 5724 5721 5718 5714 5710 5707 5705 5701 5698 5696 5693 5690 5688 5686 5685 5684 5683 5682 5680 5679 5677 5677 5679
5757 5768 5764 5760 5756 5759 5759 5749 5764 5768 5765 5764 5764 5763 5761 5759 5756 5752 5749 5745 5743 5740 5736 5732 5728 5724 5721 5718 5714 5710 5705 5702 5700 5698 5696 5693 5690 5687 5684 5682 5681 5679 5679 5677 5676 5676 5675 5673 5673
5764 5771 5765 5761 5758 5755 5759 5750 5761 5766 5758 5760 5759 5758 5758 5756 5753 5750 5747 5744 5741 5738 5734 5730 5725 5721 5717 5714 5710 5706 5703 5700 5699 5695 5692 5689 5687 5684 5681 5679 5677 5675 5675 5673 5671 5670 5670 5670 5669
5768 5764 5761 5760 5759 5741 5754 5747 5750 5761 5757 5758 5758 5756 5754 5752 5750 5747 5745 5741 5737 5735 5731 5726 5722 5717 5714 5710 5706 5702 5698 5695 5693 5690 5688 5687 5685 5682 5679 5676 5673 5671 5670 5669 5667 5666 5666 5665 5664
5762 5751 5741 5739 5740 5744 5756 5747 5746 5758 5759 5757 5754 5753 5751 5748 5746 5742 5739 5735 5732 5729 5726 5724 5719 5713 5710 5707 5702 5699 5695 5692 5689 5687 5685 5683 5682 5680 5675 5673 5669 5668 5667 5665 5664 5662 5662 5661 5660
5758 5754 5737 5728 5734 5746 5748 5743 5752 5758 5757 5756 5754 5751 5748 5744 5742 5739 5735 5731 5728 5725 5723 5720 5716 5711 5708 5704 5699 5696 5693 5692 5689 5685 5683 5681 5679 5677 5673 5669 5667 5665 5664 5663 5661 5660 5659 5658 5657
5755 5756 5764 5749 5745 5738 5745 5749 5753 5754 5750 5748 5748 5746 5742 5739 5737 5734 5731 5727 5724 5721 5718 5716 5712 5708 5705 5702 5697 5694 5691 5688 5686 5682 5680 5678 5675 5673 5670 5667 5664 5662 5661 5659 5658 5657 5656 5655 5654
5764 5761 5750 5742 5727 5725 5737 5740 5743 5741 5740 5741 5741 5739 5738 5736 5733 5730 5726 5723 5720 5717 5714 5712 5709 5705 5702 5699 5696 5694 5690 5687 5683 5680 5676 5673 5671 5668 5666 5664 5662 5660 5658 5656 5654 5654 5652 5651 5649
5750 5748 5747 5747 5745 5729 5725 5735 5749 5743 5740 5738 5737 5737 5735 5732 5729 5726 5723 5720 5716 5714 5712 5708 5705 5702 5700 5697 5693 5689 5686 5683 5680 5676 5674 5671 5668 5665 5663 5661 5659 5657 5655 5654 5651 5651 5649 5647 5645
5756 5751 5745 5732 5731 5736 5733 5733 5747 5744 5742 5738 5734 5732 5731 5729 5726 5722 5719 5715 5712 5709 5707 5704 5702 5700 5697 5694 5690 5686 5682 5679 5676 5673 5670 5668 5665 5663 5660 5658 5656 5654 5652 5650 5648 5647 5646 5644 5642